Regional Weather Roundup
Issued by NWS Bismarck, ND

Home | Current Version | Previous Version | Text Only | Print | Product List | Glossary On
Versions: 1 2 3 4 5 6 7 8 9 10 11 12 13 14 15 16 17 18 19 20 21 22 23 24 25 26 27 28 29 30 31 32 33 34 35 36 37 38 39 40 41 42 43 44 45 46 47 48 49 50
000
ASUS43 KBIS 221510
RWRBIS

NWR BROADCAST TEXT
NATIONAL WEATHER SERVICE BISMARCK ND
1000 AM CDT SAT JUL 22 2017

NOTE: "FAIR" INDICATES FEW OR NO CLOUDS BELOW 12,000 FEET WITH NO
SIGNIFICANT WEATHER AND/OR OBSTRUCTIONS TO VISIBILITY.


CITY           SKY/WX    TMP DP  RH WIND       PRES   REMARKS
WILLISTON      SUNNY     71  50  47 NW21G28   30.00R
MINOT          SUNNY     77  50  38 W17       29.93S
MINOT AFB      SUNNY     72  55  54 NW15      29.92R
BISMARCK       SUNNY     74  60  61 W5        29.97S
DICKINSON      SUNNY     74  48  39 W12       30.02S
GARRISON         N/A     74  55  51 W9        29.96R
HETTINGER ARPT SUNNY     74  49  41 W7        30.06S
JAMESTOWN      SUNNY     77  63  61 NW9       29.90S
HAZEN          FAIR      73  54  49 W9        29.99S
LINTON         FAIR     N/A N/A N/A W8        29.99S
MANDAN         FAIR      73  57  56 W9        29.98S
STANLEY        FAIR      70  54  56 NW13G18   30.00F
TIOGA          FAIR      70  46  43 W12G18    29.99F
WATFORD CITY   FAIR      72  46  40 W15G22    29.99S
$$

CITY           SKY/WX    TMP DP  RH WIND       PRES   REMARKS
GRAND FORKS    SUNNY     78  66  66 W15       29.81R
GRAND FORKS AF SUNNY     76  63  64 NW15      29.83R
DEVILS LAKE    SUNNY     69  58  67 W17G25    29.89S
FARGO          SUNNY     76  66  71 W14       29.85S
CAVALIER       FAIR      72  61  68 W16G23    29.79S
GRAFTON        FAIR      75  61  60 W18       29.83R
GWINNER        SUNNY     75  68  78 W6        29.90R
LANGDON        FAIR      68  63  83 W21G26    29.86R
ROLLA            N/A     66  55  68 NW17      29.90S
$$

CITY           SKY/WX    TMP DP  RH WIND       PRES   REMARKS
ABERDEEN       SUNNY     77  67  71 NW6       29.91S
MOBRIDGE       SUNNY     76  66  71 N12       29.95R
BUFFALO          N/A     73  49  42 NW10      30.03R
RAPID CITY     MOSUNNY   77  42  28 N12       30.06R
GLASGOW        SUNNY     68  49  50 NW17      30.08S
SIDNEY         SUNNY     72  48  42 NW20G26   30.02S
WOLF POINT     SUNNY     72  50  45 NW20G25   30.06R
GLENDIVE       SUNNY     77  43  29 NW15      30.07R
MILES CITY     SUNNY     75  35  23 NW8       30.10R
BAKER          SUNNY     73  38  27 W8        30.09R
$$

CITY           SKY/WX    TMP DP  RH WIND       PRES   REMARKS
BILLINGS       MOSUNNY   66  36  32 SW3       30.18R
GREAT FALLS    SUNNY     64  34  32 SW6       30.18R
REGINA         MOSUNNY   63  54  72 NW15      30.00R
ESTEVAN        PTSUNNY   63  57  82 NW7       29.98S
$$





USA.gov is the U.S. government's official web portal to all federal, state and local government web resources and services.